• In Deutschland
  • Länderverzeichnis
  • Für 7 Tage
  • Wassertemperatur
  • Satellitenkarten
  • Wetterkarte
  • Widgets
  • user-avatar
    Anmelden

    Stündliche Wetter Lezhe

    Heute, 21 Juni, Donnerstag

    Zeit Temperatur Niederschläge Wind Luftdruck Luftfeuchtigkeit
    00:00 +20°C° 0,2 mm 2 m/S 740 mmHg 74%
    01:00 +20°C° 0,2 mm 2 m/S 740 mmHg 75%
    02:00 +20°C° 0,1 mm 2 m/S 739 mmHg 76%
    03:00 +20°C° 0,1 mm 2 m/S 739 mmHg 77%
    04:00 +19°C° 0,1 mm 2 m/S 739 mmHg 78%
    05:00 +21°C° 0,1 mm 2 m/S 739 mmHg 74%
    06:00 +24°C° 0,1 mm 2 m/S 739 mmHg 71%
    07:00 +25°C° 0,1 mm 2 m/S 739 mmHg 67%
    08:00 +27°C° 0,2 mm 2 m/S 738 mmHg 62%
    09:00 +28°C° 0,2 mm 2 m/S 738 mmHg 56%
    10:00 +29°C° 0,2 mm 2 m/S 738 mmHg 51%
    11:00 +30°C° 0,4 mm 2 m/S 738 mmHg 51%
    12:00 +30°C° 0,4 mm 2 m/S 738 mmHg 51%
    13:00 +30°C° 0,4 mm 3 m/S 737 mmHg 51%
    14:00 +30°C° 0,8 mm 3 m/S 737 mmHg 55%
    15:00 +29°C° 0,8 mm 3 m/S 737 mmHg 59%
    16:00 +28°C° 0,8 mm 3 m/S 736 mmHg 63%
    17:00 +27°C° 0,3 mm 2 m/S 736 mmHg 68%
    18:00 +25°C° 0,3 mm 2 m/S 736 mmHg 73%
    19:00 +24°C° 0,3 mm 1 m/S 736 mmHg 78%
    20:00 +23°C° 0,2 mm 1 m/S 736 mmHg 79%
    21:00 +23°C° 0,2 mm 1 m/S 736 mmHg 81%
    22:00 +22°C° 0,2 mm 1 m/S 737 mmHg 82%
    23:00 +21°C° 0,1 mm 1 m/S 737 mmHg 82%

    Morgen, 22 Juni, Freitag

    Zeit Temperatur Niederschläge Wind Luftdruck Luftfeuchtigkeit
    00:00 +21°C° 0,1 mm 1 m/S 736 mmHg 81%
    01:00 +20°C° 0,1 mm 1 m/S 736 mmHg 80%
    02:00 +19°C° 0,1 mm 2 m/S 736 mmHg 81%
    03:00 +19°C° 0,1 mm 2 m/S 736 mmHg 81%
    04:00 +19°C° 0,1 mm 2 m/S 736 mmHg 81%
    05:00 +20°C° 0 mm 2 m/S 736 mmHg 77%
    06:00 +23°C° 0 mm 2 m/S 736 mmHg 73%
    07:00 +25°C° 0 mm 1 m/S 736 mmHg 69%
    08:00 +26°C° 0,1 mm 2 m/S 736 mmHg 65%
    09:00 +27°C° 0,1 mm 2 m/S 736 mmHg 62%
    10:00 +28°C° 0,1 mm 2 m/S 736 mmHg 58%
    11:00 +28°C° 0,3 mm 3 m/S 736 mmHg 58%
    12:00 +29°C° 0,3 mm 3 m/S 735 mmHg 58%
    13:00 +29°C° 0,3 mm 3 m/S 735 mmHg 59%
    14:00 +29°C° 0,7 mm 3 m/S 735 mmHg 60%
    15:00 +28°C° 0,7 mm 2 m/S 735 mmHg 62%
    16:00 +28°C° 0,7 mm 2 m/S 735 mmHg 64%
    17:00 +26°C° 0,6 mm 2 m/S 735 mmHg 70%
    18:00 +25°C° 0,6 mm 2 m/S 736 mmHg 76%
    19:00 +23°C° 0,6 mm 1 m/S 736 mmHg 81%
    20:00 +21°C° 0,1 mm 2 m/S 736 mmHg 83%
    21:00 +20°C° 0,1 mm 2 m/S 737 mmHg 85%
    22:00 +19°C° 0,1 mm 2 m/S 737 mmHg 87%
    23:00 +18°C° 0 mm 3 m/S 737 mmHg 86%

    übermorgen, 23 Juni, Samstag

    Zeit Temperatur Niederschläge Wind Luftdruck Luftfeuchtigkeit
    00:00 +17°C° 0 mm 3 m/S 737 mmHg 85%
    01:00 +17°C° 0 mm 3 m/S 737 mmHg 84%
    02:00 +15°C° 0 mm 4 m/S 737 mmHg 83%
    03:00 +15°C° 0 mm 4 m/S 737 mmHg 81%
    04:00 +15°C° 0 mm 4 m/S 737 mmHg 80%
    05:00 +17°C° 0 mm 4 m/S 738 mmHg 77%
    06:00 +17°C° 0 mm 4 m/S 738 mmHg 74%
    07:00 +17°C° 0 mm 5 m/S 738 mmHg 70%
    08:00 +19°C° 0,4 mm 4 m/S 738 mmHg 68%
    09:00 +20°C° 0,4 mm 4 m/S 738 mmHg 66%
    10:00 +20°C° 0,4 mm 4 m/S 738 mmHg 64%
    11:00 +20°C° 0,8 mm 4 m/S 738 mmHg 65%
    12:00 +20°C° 0,8 mm 4 m/S 738 mmHg 66%
    13:00 +21°C° 0,8 mm 4 m/S 738 mmHg 66%
    14:00 +22°C° 0,1 mm 3 m/S 738 mmHg 63%
    15:00 +22°C° 0,1 mm 3 m/S 737 mmHg 60%
    16:00 +24°C° 0,1 mm 3 m/S 737 mmHg 56%
    17:00 +22°C° 0 mm 3 m/S 737 mmHg 61%
    18:00 +20°C° 0 mm 3 m/S 737 mmHg 65%
    19:00 +19°C° 0 mm 3 m/S 737 mmHg 70%
    20:00 +18°C° 0 mm 3 m/S 738 mmHg 71%
    21:00 +17°C° 0 mm 3 m/S 738 mmHg 71%
    22:00 +16°C° 0 mm 3 m/S 738 mmHg 72%
    23:00 +16°C° 0 mm 3 m/S 738 mmHg 73%

    24 Juni, Sonntag

    Zeit Temperatur Niederschläge Wind Luftdruck Luftfeuchtigkeit
    00:00 +14°C° 0 mm 4 m/S 738 mmHg 74%
    01:00 +14°C° 0 mm 4 m/S 738 mmHg 74%
    02:00 +14°C° 0 mm 4 m/S 738 mmHg 75%
    03:00 +13°C° 0 mm 4 m/S 738 mmHg 76%
    04:00 +13°C° 0 mm 4 m/S 738 mmHg 76%
    05:00 +15°C° 0 mm 4 m/S 738 mmHg 73%
    06:00 +17°C° 0 mm 4 m/S 738 mmHg 69%
    07:00 +19°C° 0 mm 4 m/S 738 mmHg 65%
    08:00 +20°C° 0 mm 4 m/S 738 mmHg 60%
    09:00 +22°C° 0 mm 4 m/S 738 mmHg 56%
    10:00 +23°C° 0 mm 4 m/S 738 mmHg 51%
    11:00 +25°C° 0 mm 3 m/S 738 mmHg 50%
    12:00 +26°C° 0 mm 3 m/S 738 mmHg 48%
    13:00 +27°C° 0 mm 3 m/S 737 mmHg 47%
    14:00 +26°C° 0 mm 3 m/S 737 mmHg 48%
    15:00 +26°C° 0 mm 3 m/S 737 mmHg 49%
    16:00 +26°C° 0 mm 4 m/S 737 mmHg 50%
    17:00 +25°C° 0 mm 4 m/S 737 mmHg 55%
    18:00 +22°C° 0 mm 4 m/S 737 mmHg 61%
    19:00 +20°C° 0 mm 4 m/S 737 mmHg 66%
    20:00 +19°C° 0 mm 4 m/S 737 mmHg 68%
    21:00 +19°C° 0 mm 4 m/S 738 mmHg 69%
    22:00 +18°C° 0 mm 4 m/S 738 mmHg 70%
    23:00 +17°C° 0 mm 4 m/S 738 mmHg 70%

    25 Juni, Montag

    Zeit Temperatur Niederschläge Wind Luftdruck Luftfeuchtigkeit
    00:00 +17°C° 0 mm 4 m/S 737 mmHg 71%
    01:00 +17°C° 0 mm 4 m/S 737 mmHg 71%
    02:00 +17°C° 0 mm 4 m/S 737 mmHg 71%
    03:00 +15°C° 0 mm 4 m/S 737 mmHg 72%
    04:00 +15°C° 0 mm 4 m/S 737 mmHg 72%
    05:00 +17°C° 0,1 mm 4 m/S 737 mmHg 72%
    06:00 +18°C° 0,1 mm 4 m/S 737 mmHg 71%
    07:00 +19°C° 0,1 mm 4 m/S 737 mmHg 70%
    08:00 +20°C° 0,2 mm 4 m/S 737 mmHg 69%
    09:00 +20°C° 0,2 mm 3 m/S 737 mmHg 68%
    10:00 +21°C° 0,2 mm 3 m/S 737 mmHg 66%
    11:00 +21°C° 1,3 mm 3 m/S 737 mmHg 70%
    12:00 +20°C° 1,3 mm 3 m/S 737 mmHg 74%
    13:00 +20°C° 1,3 mm 3 m/S 737 mmHg 78%
    14:00 +19°C° 1,3 mm 3 m/S 736 mmHg 81%
    15:00 +19°C° 1,3 mm 3 m/S 736 mmHg 83%
    16:00 +18°C° 1,3 mm 4 m/S 736 mmHg 86%
    17:00 +18°C° 0,6 mm 4 m/S 736 mmHg 87%
    18:00 +18°C° 0,6 mm 4 m/S 736 mmHg 87%
    19:00 +18°C° 0,6 mm 4 m/S 736 mmHg 88%
    20:00 +17°C° 0,4 mm 4 m/S 736 mmHg 88%
    21:00 +17°C° 0,4 mm 4 m/S 736 mmHg 88%
    22:00 +17°C° 0,4 mm 3 m/S 736 mmHg 88%
    23:00 +17°C° 0,3 mm 3 m/S 736 mmHg 88%

    26 Juni, Dienstag

    Zeit Temperatur Niederschläge Wind Luftdruck Luftfeuchtigkeit
    00:00 +17°C° 0,3 mm 3 m/S 735 mmHg 88%
    01:00 +17°C° 0,3 mm 3 m/S 735 mmHg 88%
    02:00 +17°C° 1,3 mm 4 m/S 735 mmHg 89%
    03:00 +17°C° 1,3 mm 4 m/S 735 mmHg 90%
    04:00 +17°C° 1,3 mm 4 m/S 735 mmHg 91%
    05:00 +17°C° 0,9 mm 4 m/S 735 mmHg 90%
    06:00 +18°C° 0,9 mm 4 m/S 735 mmHg 89%
    07:00 +18°C° 0,9 mm 4 m/S 735 mmHg 88%
    08:00 +19°C° 0,4 mm 5 m/S 735 mmHg 85%
    09:00 +20°C° 0,4 mm 5 m/S 735 mmHg 82%
    10:00 +21°C° 0,4 mm 5 m/S 735 mmHg 79%
    11:00 +21°C° 0,3 mm 5 m/S 735 mmHg 77%
    12:00 +22°C° 0,3 mm 5 m/S 735 mmHg 75%
    13:00 +22°C° 0,3 mm 4 m/S 735 mmHg 73%
    14:00 +23°C° 0,1 mm 4 m/S 735 mmHg 70%
    15:00 +25°C° 0,1 mm 4 m/S 735 mmHg 66%
    16:00 +26°C° 0,1 mm 4 m/S 735 mmHg 63%
    17:00 +25°C° 0,1 mm 4 m/S 735 mmHg 67%
    18:00 +23°C° 0,1 mm 4 m/S 735 mmHg 71%
    19:00 +21°C° 0,1 mm 4 m/S 735 mmHg 75%
    20:00 +21°C° 0 mm 4 m/S 736 mmHg 75%
    21:00 +20°C° 0 mm 4 m/S 736 mmHg 76%
    22:00 +20°C° 0 mm 4 m/S 736 mmHg 76%
    23:00 +20°C° 0,1 mm 4 m/S 736 mmHg 78%
    Mehr zeigen